Starlink 1063

operational
NORAD ID: 44768 Int'l Des: 2019-074 Owner: SPXS Country: US Constellation: starlink
LEOCIRCULARSTARLINK_TYPE

Starlink 1063について

説明を読み込み中...

リアルタイム位置

3D地球を読み込み中...

次回通過

高度履歴

Altitude vs Time

uPlot chart will show altitude changes over time

軌道要素

1 44768U 19074BH 25347.30653477 .00015752 00000-0 10747-2 0 9997
2 44768 53.0536 254.4090 0001283 87.7514 272.3622 15.06375690335189
Epoch: Dec 13, 2025 • Age: 14 hours

現在のステータス

高度 561.0 km
速度 7.58 km/s
衛星直下点 -39.70°S, 168.75°E
打ち上げ日 Nov 11, 2019
運用期間 6 years
タイプ internet

技術仕様

分類 Payload
質量 260.00 kg
乾燥質量 248.00 kg
総質量 260.00 kg
長さ 0.20 m
直径 2.80 m
スパン 9.00 m
形状 Box + pan
製造者 SPXS
バスタイプ Starlink
フェーズステータス In Orbit
所有者/国 SPXS/US

大規模コンステレーション

Loading constellations...